Tracking 28790 objects as of 19-Apr-2024
HD Live streaming from Space Station
objects crossing your sky now

OSCAR 25

Track OSCAR 25 now!
10-day predictions
OSCAR 25 is classified as:


NORAD ID: 19419
Int'l Code: 1988-074A
Perigee: 1,035.2 km
Apogee: 1,179.4 km
Inclination: 90.0 °
Period: 107.3 minutes
Semi major axis: 7478 km
RCS: 1.4853 m2 (large)
Launch date: August 25, 1988
Source: United States (US)
Launch site: AIR FORCE WESTERN TEST RANGE (AFWTR)
Your satellite tracking list
Your tracking list is empty




NASA's NSSDC Master Catalog

Two Line Element Set (TLE):
1 19419U 88074A   24109.80239130  .00000196  00000-0  32107-3 0  9995
2 19419  90.0239  18.6383 0096407 165.2293 259.9270 13.42440550745505
Source of the keplerian elements: AFSPC